McComb, MS

1:43 PM CDT on June 23, 2017 (GMT -0500)
McComb-Pike County-Lewis

Weather History for KMCB - April, 2014

Change the Weather History Date:

Tuesday, April 29, 2014

  Actual Average Record
Temperature  
Mean Temperature 70 °F -  
Max Temperature 82 °F 79 °F 89 °F (1955)
Min Temperature 57 °F 56 °F 43 °F (1973)
Cooling Degree Days 4    
Growing Degree Days 20 (Base 50)    
Moisture  
Dew Point 64 °F    
Average Humidity 85    
Maximum Humidity 100    
Minimum Humidity 60    
Precipitation  
Precipitation 0.07 in - - ()
Sea Level Pressure  
Sea Level Pressure 29.70 in    
Wind  
Wind Speed 3 mph (SE)    
Max Wind Speed 15 mph    
Max Gust Speed 20 mph    
Visibility 6 miles    
Events Fog , Thunderstorm    
Averages and records for this station are not official NWS values.
T = Trace of Precipitation, MM = Missing Value Source: NWS Daily Summary

Daily Weather History Graph

Daily Weather History Graph

Search for Another Location

Airport or City:

Trip Planner

Search our weather history database for the weather conditions in past years. The results will help you decide how hot, cold, wet, or windy it might be!

Date:

Astronomy

Apr. 29, 2014 Rise Set
Actual Time 6:19 AM CDT 7:39 PM CDT
Civil Twilight 5:53 AM CDT 8:05 PM CDT
Nautical Twilight 5:23 AM CDT 8:35 PM CDT
Astronomical Twilight 4:51 AM CDT 9:07 PM CDT
Moon 6:36 AM CDT (4/29) 8:18 PM CDT (4/29)
Length of Visible Light 14h 11m
Length of Day
13h 20m
New Moon, 0% of the Moon is Illuminated
Apr 29
New Moon
May 6
First Quarter
May 14
Full
May 21
Last Quarter
May 28
New

Hourly Weather History & Observations

Time (CDT) Temp. Heat Index Dew Point Humidity Pressure Visibility Wind Dir Wind Speed Gust Speed Precip Events Conditions
12:53 AM 71.1 °F - 64.9 °F 81% 29.70 in 10.0 mi NW 5.8 mph - N/A   Clear
1:53 AM 68.0 °F - 64.0 °F 87% 29.69 in 8.0 mi Calm Calm - N/A   Clear
2:40 AM 64.9 °F - 63.0 °F 93% 29.69 in 7.0 mi Calm Calm - N/A   Clear
2:53 AM 64.0 °F - 62.1 °F 93% 29.67 in 4.0 mi Calm Calm - N/A   Clear
3:14 AM 63.0 °F - 61.0 °F 93% 29.67 in 6.0 mi Calm Calm - N/A Thunderstorm Clear
3:29 AM 63.0 °F - 61.0 °F 93% 29.67 in 7.0 mi Calm Calm - N/A   Clear
3:53 AM 61.0 °F - 59.0 °F 93% 29.66 in 2.0 mi Calm Calm - N/A   Clear
4:05 AM 62.1 °F - 60.1 °F 93% 29.68 in 5.0 mi Calm Calm - N/A   Clear
4:28 AM 60.1 °F - 59.0 °F 96% 29.67 in 1.8 mi Calm Calm - N/A   Clear
4:34 AM 61.0 °F - 59.0 °F 93% 29.68 in 1.0 mi Calm Calm - N/A   Mist
4:42 AM 60.1 °F - 59.0 °F 96% 29.68 in 0.5 mi Calm Calm - N/A Fog Fog
4:49 AM 60.8 °F - 57.2 °F 88% 29.68 in 2.0 mi Calm Calm - N/A   Partly Cloudy
4:53 AM 60.1 °F - 57.9 °F 93% 29.66 in 9.0 mi Calm Calm - N/A   Partly Cloudy
5:08 AM 61.0 °F - 59.0 °F 93% 29.68 in 1.8 mi Calm Calm - N/A   Clear
5:14 AM 59.0 °F - 57.9 °F 96% 29.68 in 1.0 mi Calm Calm - N/A   Mist
5:20 AM 59.0 °F - 57.0 °F 93% 29.69 in 0.5 mi Calm Calm - N/A Fog Fog
5:50 AM 57.2 °F - 57.2 °F 100% 29.69 in 2.5 mi Calm Calm - N/A   Overcast
5:53 AM 57.9 °F - 57.0 °F 97% 29.68 in 2.0 mi Calm Calm - N/A   Overcast
5:56 AM 57.9 °F - 57.0 °F 97% 29.69 in 0.8 mi Calm Calm - N/A   Mist
6:06 AM 57.9 °F - 57.0 °F 97% 29.70 in 2.0 mi Calm Calm - N/A   Mostly Cloudy
6:13 AM 59.0 °F - 57.0 °F 93% 29.70 in 6.0 mi Calm Calm - N/A   Scattered Clouds
6:16 AM 57.9 °F - 57.0 °F 97% 29.70 in 1.8 mi Calm Calm - N/A   Scattered Clouds
6:25 AM 57.9 °F - 55.9 °F 93% 29.70 in 3.0 mi Calm Calm - N/A   Partly Cloudy
6:53 AM 60.1 °F - 57.9 °F 93% 29.69 in 1.5 mi ESE 4.6 mph - N/A   Clear
7:04 AM 60.1 °F - 59.0 °F 96% 29.70 in 0.8 mi ESE 3.5 mph - N/A   Mist
7:13 AM 62.1 °F - 61.0 °F 96% 29.70 in 1.2 mi SE 3.5 mph - N/A   Partly Cloudy
7:23 AM 64.0 °F - 62.1 °F 93% 29.71 in 3.0 mi ESE 4.6 mph - N/A   Partly Cloudy
7:53 AM 66.9 °F - 64.0 °F 90% 29.70 in 4.0 mi SE 4.6 mph - N/A   Clear
8:53 AM 72.0 °F - 64.9 °F 78% 29.72 in 9.0 mi SSE 8.1 mph - N/A   Clear
9:53 AM 73.9 °F - 64.9 °F 73% 29.70 in 10.0 mi SSE 9.2 mph - N/A   Scattered Clouds
10:53 AM 77.0 °F - 66.0 °F 69% 29.72 in 10.0 mi SSE 10.4 mph - N/A   Scattered Clouds
11:53 AM 78.1 °F - 66.0 °F 66% 29.73 in 10.0 mi South 10.4 mph - N/A   Overcast
12:53 PM 78.1 °F - 66.0 °F 66% 29.72 in 10.0 mi SSE 8.1 mph - N/A   Overcast
1:53 PM 82.0 °F 84.5 °F 66.9 °F 60% 29.69 in 10.0 mi North - - N/A   Scattered Clouds
2:53 PM 82.0 °F 84.9 °F 68.0 °F 62% 29.68 in 10.0 mi South 10.4 mph - N/A   Mostly Cloudy
3:11 PM 81.0 °F 83.8 °F 68.0 °F 65% 29.68 in 10.0 mi South 10.4 mph - N/A   Mostly Cloudy
3:41 PM 80.1 °F 82.7 °F 68.0 °F 67% 29.69 in 10.0 mi South 11.5 mph - N/A Thunderstorm Partly Cloudy
3:53 PM 79.0 °F - 69.1 °F 72% 29.68 in 10.0 mi South 9.2 mph - N/A Thunderstorm Thunderstorm
4:12 PM 79.0 °F - 69.1 °F 72% 29.68 in 10.0 mi South 11.5 mph - N/A Thunderstorm Mostly Cloudy
4:32 PM 78.1 °F - 69.1 °F 74% 29.68 in 10.0 mi SSE 11.5 mph - N/A Thunderstorm Thunderstorm
5:25 PM 80.1 °F 82.9 °F 69.1 °F 69% 29.67 in 9.0 mi South 8.1 mph - 0.00 in Thunderstorm Partly Cloudy
5:53 PM 81.0 °F 84.9 °F 71.1 °F 72% 29.66 in 9.0 mi SSW 6.9 mph - 0.00 in   Partly Cloudy
6:09 PM 80.1 °F 83.6 °F 71.1 °F 74% 29.69 in 8.0 mi SSE 8.1 mph - N/A Thunderstorm Scattered Clouds
6:18 PM 79.0 °F - 71.1 °F 77% 29.69 in 8.0 mi SE 6.9 mph - N/A   Mostly Cloudy
6:45 PM 78.1 °F - 71.1 °F 79% 29.69 in 8.0 mi East 3.5 mph - N/A   Mostly Cloudy
6:53 PM 78.1 °F - 71.1 °F 79% 29.68 in 8.0 mi SE 4.6 mph - N/A   Mostly Cloudy
7:06 PM 77.0 °F - 71.1 °F 82% 29.69 in 8.0 mi NNW 15.0 mph 19.6 mph N/A   Overcast
7:33 PM 73.0 °F - 70.0 °F 90% 29.71 in 8.0 mi Variable 4.6 mph - 0.07 in   Overcast
7:43 PM 73.9 °F - 70.0 °F 87% 29.72 in 8.0 mi NE 3.5 mph - 0.07 in Thunderstorm Overcast
7:51 PM 73.4 °F - 69.8 °F 88% 29.73 in 8.0 mi East 4.6 mph - 0.07 in Thunderstorm Thunderstorm
7:53 PM 73.0 °F - 69.1 °F 87% 29.72 in 8.0 mi NE 4.6 mph - 0.07 in Thunderstorm Thunderstorm
8:06 PM 73.0 °F - 69.1 °F 87% 29.74 in 10.0 mi Variable 3.5 mph - N/A Thunderstorm Overcast
8:18 PM 73.0 °F - 68.0 °F 84% 29.74 in 10.0 mi Variable 3.5 mph - N/A   Mostly Cloudy
8:53 PM 72.0 °F - 68.0 °F 87% 29.74 in 10.0 mi Calm Calm - N/A   Overcast
9:53 PM 70.0 °F - 66.0 °F 87% 29.75 in 10.0 mi NNW 10.4 mph - N/A   Clear
10:53 PM 68.0 °F - 60.1 °F 76% 29.78 in 10.0 mi North 10.4 mph - N/A   Mostly Cloudy
11:53 PM 64.9 °F - 57.0 °F 75% 29.81 in 10.0 mi North 6.9 mph - N/A   Partly Cloudy